Charlottetown, Prince Edward Island

2:00 PM ADT on April 25, 2017 (GMT -0300)
Charlottetown

Weather History for CYYG - October, 2011

Change the Weather History Date:

Saturday, October 29, 2011

  Actual Average Record
Temperature  
Mean Temperature 38 °F -  
Max Temperature 45 °F 43 °F 64 °F (2003)
Min Temperature 32 °F 30 °F 29 °F (2013)
Degree Days  
Heating Degree Days 26    
Moisture  
Dew Point 29 °F    
Average Humidity 71    
Maximum Humidity 87    
Minimum Humidity 44    
Precipitation  
Precipitation 0.00 in 0.16 in - ()
Sea Level Pressure  
Sea Level Pressure 30.15 in    
Wind  
Wind Speed 6 mph ()    
Max Wind Speed 10 mph    
Max Gust Speed -    
Visibility 15.0 miles    
Events      
Averages and records for this station are not official NWS values.
T = Trace of Precipitation, MM = Missing Value Source: Averaged Metar Reports

Daily Weather History Graph

Daily Weather History Graph

Search for Another Location

Airport or City:

Trip Planner

Search our weather history database for the weather conditions in past years. The results will help you decide how hot, cold, wet, or windy it might be!

Date:

Astronomy

Oct. 29, 2011 Rise Set
Actual Time 7:48 AM ADT 6:02 PM ADT
Civil Twilight 7:17 AM ADT 6:34 PM ADT
Nautical Twilight 6:42 AM ADT 7:09 PM ADT
Astronomical Twilight 6:07 AM ADT 7:44 PM ADT
Moon 11:17 AM ADT (10/29) 8:10 PM ADT (10/29)
Length of Visible Light 11h 16m
Length of Day
10h 14m
Waxing Crescent, 11% of the Moon is Illuminated
Oct 29
Waxing Crescent
Nov 2
First Quarter
Nov 10
Full
Nov 18
Last Quarter
Nov 25
New

Hourly Weather History & Observations

Time (ADT) Temp. Windchill Dew Point Humidity Pressure Visibility Wind Dir Wind Speed Gust Speed Precip Events Conditions
12:00 AM 35.6 °F 29.9 °F 24.8 °F 65% 29.98 in 15.0 mi West 6.9 mph - N/A   Mostly Cloudy
1:00 AM 33.8 °F 27.0 °F 24.8 °F 70% 30.00 in 15.0 mi West 8.1 mph - N/A   Scattered Clouds
2:00 AM 35.6 °F 28.6 °F 24.8 °F 65% 30.02 in 15.0 mi West 9.2 mph - N/A   Partly Cloudy
3:00 AM 34 °F - 26 °F 63% 30.05 in 15 mi West 8.1 mph - -   Scattered Clouds
3:00 AM 33.8 °F 27.0 °F 26.6 °F 75% 30.05 in 15.0 mi West 8.1 mph - N/A   Partly Cloudy
4:00 AM 35.6 °F 28.6 °F 26.6 °F 70% 30.07 in 15.0 mi West 9.2 mph - N/A   Mostly Cloudy
5:00 AM 33.8 °F 27.7 °F 26.6 °F 75% 30.09 in 15.0 mi West 6.9 mph - N/A   Partly Cloudy
6:00 AM 32.0 °F 26.4 °F 26.6 °F 80% 30.11 in 15.0 mi West 5.8 mph - N/A   Partly Cloudy
7:00 AM 33.8 °F 27.0 °F 26.6 °F 75% 30.12 in 15.0 mi West 8.1 mph - N/A   Partly Cloudy
8:00 AM 33.8 °F 27.0 °F 26.6 °F 75% 30.14 in 15.0 mi WNW 8.1 mph - N/A   Partly Cloudy
9:00 AM 34 °F - 28 °F 70% 30.17 in 15 mi West 8.1 mph - -   Scattered Clouds
9:00 AM 33.8 °F 27.7 °F 28.4 °F 81% 30.17 in 15.0 mi West 6.9 mph - N/A   Partly Cloudy
10:00 AM 37.4 °F 30.8 °F 30.2 °F 75% 30.20 in 15.0 mi WNW 9.2 mph - N/A   Partly Cloudy
11:00 AM 39.2 °F 32.5 °F 32.0 °F 75% 30.20 in 15.0 mi WNW 10.4 mph - N/A   Partly Cloudy
12:00 PM 42.8 °F 37.5 °F 32.0 °F 66% 30.20 in 15.0 mi NW 9.2 mph - N/A   Partly Cloudy
1:00 PM 44.6 °F 40.7 °F 32.0 °F 61% 30.20 in 15.0 mi NW 6.9 mph - N/A   Scattered Clouds
2:00 PM 42.8 °F 38.0 °F 30.2 °F 61% 30.21 in 15.0 mi WNW 8.1 mph - N/A   Mostly Cloudy
3:00 PM 45 °F - 30 °F 44% 30.21 in 15 mi NW 6.9 mph - -   Partly Cloudy
3:00 PM 44.6 °F 41.4 °F 30.2 °F 57% 30.21 in 15.0 mi NW 5.8 mph - N/A   Mostly Cloudy
4:00 PM 44.6 °F 39.2 °F 32.0 °F 61% 30.20 in 15.0 mi North 10.4 mph - N/A   Scattered Clouds
5:00 PM 41.0 °F 38.0 °F 30.2 °F 65% 30.21 in 15.0 mi NNW 4.6 mph - N/A   Mostly Cloudy
6:00 PM 41.0 °F - 32.0 °F 70% 30.21 in 15.0 mi Calm Calm - N/A   Mostly Cloudy
7:00 PM 39.2 °F 37.0 °F 32.0 °F 75% 30.21 in 15.0 mi NW 3.5 mph - N/A   Mostly Cloudy
7:52 PM 35.6 °F - - N/A% - 15.0 mi Calm Calm - N/A   Overcast
8:00 PM 37.4 °F - 32.0 °F 81% 30.21 in 15.0 mi Calm Calm - N/A   Overcast
9:00 PM 38 °F - 33 °F 75% 30.19 in 15 mi ESE 3.5 mph - -   Overcast
9:00 PM 37.4 °F 34.9 °F 33.8 °F 87% 30.19 in 15.0 mi ESE 3.5 mph - N/A   Overcast
10:00 PM 37.4 °F - 33.8 °F 87% 30.18 in 15.0 mi Calm Calm - N/A   Overcast
11:00 PM 37.4 °F 33.8 °F 32.0 °F 81% 30.17 in 15.0 mi East 4.6 mph - N/A   Overcast